This is the latest recevied weather packets stored in our database for station/object KC4GS-13. If no packets are shown the sender has not sent any weather packets the latest 10 day(s).
| Time | Temp. | Humidity | Pressure | Rain* | Wind** | Luminosity | Snow |
|---|---|---|---|---|---|---|---|
| 1787613577 | 32.78° C | 40% | 1015.4 hPa | 0 mm | - | 26 W/m² | - |
| 1787613272 | 32.78° C | 40% | 1015.2 hPa | 0 mm | - | 29 W/m² | - |
| 1787612969 | 32.78° C | 39% | 1015.2 hPa | 0 mm | - | 30 W/m² | - |
| 1787612665 | 32.78° C | 39% | 1015.4 hPa | 0 mm | - | 32 W/m² | - |
| 1787612361 | 32.78° C | 38% | 1015.4 hPa | 0 mm | - | 36 W/m² | - |
| 1787612056 | 33.33° C | 38% | 1015.2 hPa | 0 mm | - | 39 W/m² | - |
| 1787611752 | 33.33° C | 39% | 1015.3 hPa | 0 mm | - | 41 W/m² | - |
| 1787611448 | 33.33° C | 39% | 1015.2 hPa | 0 mm | - | 42 W/m² | - |
| 1787611143 | 33.33° C | 39% | 1015.2 hPa | 0 mm | - | 44 W/m² | - |
| 1787610838 | 33.89° C | 39% | 1015.2 hPa | 0 mm | - | 46 W/m² | - |
| 1787610534 | 33.89° C | 38% | 1015.2 hPa | 0 mm | - | 48 W/m² | - |
| 1787610233 | 34.44° C | 38% | 1015.1 hPa | 0 mm | - | 52 W/m² | - |
| 1787609928 | 35° C | 37% | 1015.3 hPa | 0 mm | - | 176 W/m² | - |
| 1787609627 | 35° C | 36% | 1015 hPa | 0 mm | - | 249 W/m² | - |
| 1787609321 | 35° C | 37% | 1015.2 hPa | 0 mm | - | 259 W/m² | - |
| 1787609016 | 35.56° C | 35% | 1015.1 hPa | 0 mm | - | 281 W/m² | - |
| 1787608711 | 35.56° C | 35% | 1015.1 hPa | 0 mm | - | 305 W/m² | - |
| 1787608410 | 35° C | 35% | 1015.2 hPa | 0 mm | - | 297 W/m² | - |
| 1787608107 | 35° C | 35% | 1015 hPa | 0 mm | - | 337 W/m² | - |
| 1787607803 | 35.56° C | 35% | 1014.9 hPa | 0 mm | - | 363 W/m² | - |
| 1787607500 | 35.56° C | 34% | 1015 hPa | 0 mm | - | 380 W/m² | - |
| 1787607197 | 36.11° C | 35% | 1014.9 hPa | 0 mm | - | 386 W/m² | - |
| 1787606892 | 36.11° C | 33% | 1014.8 hPa | 0 mm | - | 420 W/m² | - |
| 1787606590 | 36.11° C | 34% | 1014.8 hPa | 0 mm | - | 438 W/m² | - |
| 1787606290 | 35.56° C | 34% | 1014.9 hPa | 0 mm | - | 459 W/m² | - |
* Rain latest hour (hover to see other rain measurements)
** Current wind speed in m/s (hover to see current wind gust speed)